JBU2153 KFLL-TJSJ

Flight info

Callsign JBU2153
Flight time N/A
Altitude 35000
Route SNAPR2 SUMAC Y421 HAGIT Y290 CALTO Y290 BEANO BEANO3
Aircraft A321/M-SDE3GIRWY/B2L

Departure

Time N/A
Airport Fort Lauderdale Hollywood International Airport (KFLL)

Arrival

Time 2026-05-03 21:48
Airport Luis Munoz Marin International Airport (TJSJ)
Time Latitude Longitude Altitude Speed Heading
2026-05-03 20:15 24.24913 -75.55214 35022 ft 509 kts 126°
2026-05-03 20:15 24.21193 -75.48626 35023 ft 508 kts 126°
2026-05-03 20:16 24.17463 -75.42045 35032 ft 510 kts 126°
2026-05-03 20:16 24.13704 -75.35438 35035 ft 512 kts 126°
2026-05-03 20:17 24.09939 -75.28821 35054 ft 512 kts 126°
2026-05-03 20:17 24.06189 -75.22198 35057 ft 512 kts 126°
2026-05-03 20:18 24.02432 -75.15584 35060 ft 512 kts 126°
2026-05-03 20:18 23.98666 -75.08978 35059 ft 511 kts 126°
2026-05-03 20:19 23.94910 -75.02391 35053 ft 510 kts 126°
2026-05-03 20:19 23.91146 -74.95806 35055 ft 510 kts 126°
2026-05-03 20:20 23.87381 -74.89233 35049 ft 510 kts 126°
2026-05-03 20:20 23.83607 -74.82663 35051 ft 510 kts 126°
2026-05-03 20:21 23.79840 -74.76100 35072 ft 510 kts 126°
2026-05-03 20:21 23.76079 -74.69536 35061 ft 510 kts 126°
2026-05-03 20:22 23.72316 -74.62972 35056 ft 509 kts 126°
2026-05-03 20:22 23.68546 -74.56430 35060 ft 509 kts 126°
2026-05-03 20:23 23.64780 -74.49909 35063 ft 508 kts 126°
2026-05-03 20:23 23.61036 -74.43416 35062 ft 508 kts 126°
2026-05-03 20:24 23.57263 -74.36897 35058 ft 508 kts 126°
2026-05-03 20:24 23.53491 -74.30395 35056 ft 508 kts 126°
2026-05-03 20:25 23.49715 -74.23889 35054 ft 507 kts 126°
2026-05-03 20:25 23.45946 -74.17388 35060 ft 507 kts 126°
2026-05-03 20:26 23.42174 -74.10892 35059 ft 507 kts 126°
2026-05-03 20:26 23.38404 -74.04417 35064 ft 507 kts 126°
2026-05-03 20:27 23.34623 -73.97926 35063 ft 507 kts 126°
2026-05-03 20:27 23.30842 -73.91463 35060 ft 506 kts 126°
2026-05-03 20:28 23.27059 -73.84997 35059 ft 506 kts 126°
2026-05-03 20:28 23.23289 -73.78538 35058 ft 506 kts 125°
2026-05-03 20:29 23.19518 -73.72090 35060 ft 505 kts 126°
2026-05-03 20:29 23.15736 -73.65645 35059 ft 505 kts 126°
2026-05-03 20:30 23.11952 -73.59208 35059 ft 505 kts 126°
2026-05-03 20:30 23.08178 -73.52779 35058 ft 505 kts 125°
2026-05-03 20:31 23.04397 -73.46342 35064 ft 505 kts 125°
2026-05-03 20:31 23.00618 -73.39932 35055 ft 504 kts 125°
2026-05-03 20:32 22.96827 -73.33513 35057 ft 504 kts 125°
2026-05-03 20:32 22.93050 -73.27111 35056 ft 504 kts 125°
2026-05-03 20:33 22.89296 -73.20765 35056 ft 504 kts 125°
2026-05-03 20:33 22.85467 -73.14313 35055 ft 503 kts 125°
2026-05-03 20:34 22.81678 -73.07933 35055 ft 503 kts 125°
2026-05-03 20:34 22.77893 -73.01556 35059 ft 503 kts 125°
2026-05-03 20:35 22.74111 -72.95171 35060 ft 503 kts 125°
2026-05-03 20:35 22.70327 -72.88801 35058 ft 503 kts 125°
2026-05-03 20:36 22.66524 -72.82444 35057 ft 503 kts 125°
2026-05-03 20:36 22.62729 -72.76081 35058 ft 502 kts 125°
2026-05-03 20:37 22.58961 -72.69776 35061 ft 502 kts 125°
2026-05-03 20:37 22.55139 -72.63379 35057 ft 502 kts 125°
2026-05-03 20:38 22.51366 -72.57086 35055 ft 502 kts 125°
2026-05-03 20:38 22.47544 -72.50712 35057 ft 502 kts 125°
2026-05-03 20:39 22.43776 -72.44423 35059 ft 501 kts 125°
2026-05-03 20:39 22.39977 -72.38094 35060 ft 501 kts 125°
2026-05-03 20:40 22.36176 -72.31792 35056 ft 501 kts 125°
2026-05-03 20:40 22.32370 -72.25484 35058 ft 500 kts 125°
2026-05-03 20:41 22.28574 -72.19194 35056 ft 500 kts 125°
2026-05-03 20:41 22.24782 -72.12905 35053 ft 500 kts 125°
2026-05-03 20:42 22.20988 -72.06621 35054 ft 500 kts 125°
2026-05-03 20:42 22.17180 -72.00340 35054 ft 500 kts 125°
2026-05-03 20:43 22.13380 -71.94069 35055 ft 500 kts 125°
2026-05-03 20:43 22.09576 -71.87789 35054 ft 500 kts 125°
2026-05-03 20:44 22.05778 -71.81523 35053 ft 499 kts 125°
2026-05-03 20:44 22.02614 -71.76316 35054 ft 499 kts 125°
2026-05-03 20:45 21.98810 -71.70071 35046 ft 499 kts 125°
2026-05-03 20:45 21.95002 -71.63829 35047 ft 498 kts 125°
2026-05-03 20:46 21.91188 -71.57583 35054 ft 498 kts 125°
2026-05-03 20:46 21.87382 -71.51347 35049 ft 498 kts 125°
2026-05-03 20:47 21.83570 -71.45121 35053 ft 498 kts 125°
2026-05-03 20:47 21.79757 -71.38891 35044 ft 498 kts 125°
2026-05-03 20:48 21.75942 -71.32666 35058 ft 498 kts 125°
2026-05-03 20:48 21.72130 -71.26449 35046 ft 497 kts 125°
2026-05-03 20:49 21.68319 -71.20244 35051 ft 497 kts 125°
2026-05-03 20:49 21.64503 -71.14043 35045 ft 497 kts 125°
2026-05-03 20:50 21.60687 -71.07865 35044 ft 496 kts 125°
2026-05-03 20:50 21.56863 -71.01678 35047 ft 496 kts 125°
2026-05-03 20:51 21.53027 -70.95577 35053 ft 496 kts 126°
2026-05-03 20:51 21.49119 -70.89467 35049 ft 496 kts 126°
2026-05-03 20:52 21.45203 -70.83353 35046 ft 496 kts 126°
2026-05-03 20:52 21.41314 -70.77249 35048 ft 496 kts 126°
2026-05-03 20:53 21.37417 -70.71131 35042 ft 496 kts 126°
2026-05-03 20:53 21.33520 -70.65032 35048 ft 496 kts 126°
2026-05-03 20:54 21.29617 -70.58930 35046 ft 496 kts 126°
2026-05-03 20:54 21.23765 -70.49784 35045 ft 495 kts 126°
2026-05-03 20:55 21.19865 -70.43698 35053 ft 495 kts 126°
2026-05-03 20:55 21.15983 -70.37643 35051 ft 495 kts 126°
2026-05-03 20:56 21.12077 -70.31567 35048 ft 495 kts 126°
2026-05-03 20:56 21.08166 -70.25487 35049 ft 495 kts 126°
2026-05-03 20:57 21.04260 -70.19419 35052 ft 495 kts 126°
2026-05-03 20:57 21.00352 -70.13359 35054 ft 494 kts 126°
2026-05-03 20:58 20.96441 -70.07313 35053 ft 494 kts 126°
2026-05-03 20:58 20.92529 -70.01260 35051 ft 494 kts 126°
2026-05-03 20:59 20.88626 -69.95221 35052 ft 494 kts 126°
2026-05-03 20:59 20.84714 -69.89179 35050 ft 494 kts 126°
2026-05-03 21:00 20.81465 -69.84160 35054 ft 494 kts 126°
2026-05-03 21:00 20.76899 -69.77113 35050 ft 493 kts 126°
2026-05-03 21:01 20.72987 -69.71090 35053 ft 493 kts 126°
2026-05-03 21:01 20.69104 -69.65117 35052 ft 493 kts 126°
2026-05-03 21:02 20.65197 -69.59109 35055 ft 492 kts 126°
2026-05-03 21:02 20.61280 -69.53107 35054 ft 492 kts 126°
2026-05-03 21:03 20.57370 -69.47111 35050 ft 492 kts 126°
2026-05-03 21:03 20.53463 -69.41121 35052 ft 492 kts 126°
2026-05-03 21:04 20.49552 -69.35136 35058 ft 491 kts 126°
2026-05-03 21:04 20.45649 -69.29163 35057 ft 491 kts 126°
2026-05-03 21:05 20.41743 -69.23186 35058 ft 491 kts 126°
2026-05-03 21:05 20.37827 -69.17216 35056 ft 491 kts 126°
2026-05-03 21:06 20.33907 -69.11260 35060 ft 491 kts 126°
2026-05-03 21:06 20.30002 -69.05313 35061 ft 490 kts 126°
2026-05-03 21:07 20.26117 -68.99392 35058 ft 490 kts 126°
2026-05-03 21:07 20.22206 -68.93450 35058 ft 490 kts 126°
2026-05-03 21:08 20.18283 -68.87498 35061 ft 490 kts 126°
2026-05-03 21:08 20.14365 -68.81563 35063 ft 490 kts 126°
2026-05-03 21:09 20.10449 -68.75627 35060 ft 490 kts 126°
2026-05-03 21:09 20.06549 -68.69686 35061 ft 490 kts 125°
2026-05-03 21:10 20.02793 -68.63640 35060 ft 490 kts 123°
2026-05-03 21:10 19.99105 -68.57559 35061 ft 490 kts 123°
2026-05-03 21:11 19.95383 -68.51491 35060 ft 489 kts 124°
2026-05-03 21:11 19.91656 -68.45505 35063 ft 489 kts 124°
2026-05-03 21:12 19.87892 -68.39486 35062 ft 489 kts 124°
2026-05-03 21:12 19.84152 -68.33456 35064 ft 489 kts 124°
2026-05-03 21:13 19.80409 -68.27418 35067 ft 489 kts 124°
2026-05-03 21:13 19.76666 -68.21402 35066 ft 488 kts 124°
2026-05-03 21:14 19.72908 -68.15389 35069 ft 488 kts 124°
2026-05-03 21:14 19.69157 -68.09387 35068 ft 488 kts 124°
2026-05-03 21:15 19.65404 -68.03382 35070 ft 488 kts 124°
2026-05-03 21:15 19.61680 -67.97423 35069 ft 488 kts 124°
2026-05-03 21:16 19.57933 -67.91431 35069 ft 487 kts 124°
2026-05-03 21:16 19.54182 -67.85444 35069 ft 487 kts 124°
2026-05-03 21:17 19.51061 -67.80469 35069 ft 487 kts 124°
2026-05-03 21:17 19.46668 -67.73479 35066 ft 487 kts 124°
2026-05-03 21:18 19.42918 -67.67510 35067 ft 487 kts 124°
2026-05-03 21:18 19.39173 -67.61543 35070 ft 487 kts 124°
2026-05-03 21:19 19.35419 -67.55580 35066 ft 487 kts 124°
2026-05-03 21:19 19.33540 -67.52597 34855 ft 488 kts 124°
2026-05-03 21:19 19.31662 -67.49616 34493 ft 483 kts 124°
2026-05-03 21:20 19.29796 -67.46660 34273 ft 483 kts 124°
2026-05-03 21:20 19.27925 -67.43705 34044 ft 483 kts 124°
2026-05-03 21:20 19.26049 -67.40741 33300 ft 487 kts 124°
2026-05-03 21:20 19.24156 -67.37750 32358 ft 490 kts 124°
2026-05-03 21:21 19.22255 -67.34741 31491 ft 492 kts 124°
2026-05-03 21:21 19.20368 -67.31749 30894 ft 488 kts 124°
2026-05-03 21:21 19.18487 -67.28765 30196 ft 486 kts 123°
2026-05-03 21:21 19.16612 -67.25798 29331 ft 486 kts 123°
2026-05-03 21:22 19.14733 -67.22829 28406 ft 486 kts 123°
2026-05-03 21:22 19.12848 -67.19853 27434 ft 488 kts 123°
2026-05-03 21:22 19.10953 -67.16864 26481 ft 490 kts 124°
2026-05-03 21:22 19.09087 -67.13929 25856 ft 484 kts 124°
2026-05-03 21:23 19.07194 -67.10955 25224 ft 479 kts 123°
2026-05-03 21:23 19.05347 -67.08048 24577 ft 474 kts 123°
2026-05-03 21:23 19.03545 -67.05210 23937 ft 469 kts 124°
2026-05-03 21:23 19.01735 -67.02360 23243 ft 465 kts 124°
2026-05-03 21:24 18.99943 -66.99539 22478 ft 461 kts 124°
2026-05-03 21:24 18.98157 -66.96727 21727 ft 458 kts 124°
2026-05-03 21:24 18.96390 -66.93947 20961 ft 455 kts 125°
2026-05-03 21:24 18.94629 -66.91178 20228 ft 452 kts 125°
2026-05-03 21:25 18.92883 -66.88434 19521 ft 449 kts 126°
2026-05-03 21:25 18.91148 -66.85711 18745 ft 444 kts 126°
2026-05-03 21:25 18.89432 -66.83021 17905 ft 441 kts 126°
2026-05-03 21:25 18.87726 -66.80350 17060 ft 435 kts 126°
2026-05-03 21:26 18.86048 -66.77722 16187 ft 429 kts 126°
2026-05-03 21:26 18.84393 -66.75130 15387 ft 423 kts 125°
2026-05-03 21:26 18.82764 -66.72577 14612 ft 415 kts 125°
2026-05-03 21:26 18.81166 -66.70078 13850 ft 407 kts 125°
2026-05-03 21:27 18.79593 -66.67618 12999 ft 400 kts 124°
2026-05-03 21:27 18.78058 -66.65214 12233 ft 391 kts 124°
2026-05-03 21:27 18.76539 -66.62838 11565 ft 388 kts 124°
2026-05-03 21:27 18.74962 -66.60606 11343 ft 372 kts 128°
2026-05-03 21:28 18.73379 -66.58523 11221 ft 355 kts 129°
2026-05-03 21:28 18.71866 -66.56574 11100 ft 331 kts 129°
2026-05-03 21:28 18.70444 -66.54760 10981 ft 310 kts 130°
2026-05-03 21:28 18.69098 -66.53050 10741 ft 297 kts 130°
2026-05-03 21:29 18.67790 -66.51381 10415 ft 294 kts 129°
2026-05-03 21:29 18.66500 -66.49727 10104 ft 291 kts 129°
2026-05-03 21:29 18.65222 -66.48081 9779 ft 289 kts 129°
2026-05-03 21:29 18.63951 -66.46443 9420 ft 287 kts 129°
2026-05-03 21:30 18.62686 -66.44812 9082 ft 286 kts 129°
2026-05-03 21:30 18.61434 -66.43196 8751 ft 284 kts 129°
2026-05-03 21:30 18.60186 -66.41589 8414 ft 282 kts 129°
2026-05-03 21:30 18.58946 -66.39992 8086 ft 280 kts 129°
2026-05-03 21:31 18.57719 -66.38410 7761 ft 278 kts 129°
2026-05-03 21:31 18.56512 -66.36855 7434 ft 277 kts 129°
2026-05-03 21:31 18.55298 -66.35292 7095 ft 275 kts 129°
2026-05-03 21:31 18.54094 -66.33747 6740 ft 271 kts 129°
2026-05-03 21:32 18.52893 -66.32207 6501 ft 271 kts 129°
2026-05-03 21:32 18.51704 -66.30676 6254 ft 268 kts 129°
2026-05-03 21:32 18.50533 -66.29169 6014 ft 263 kts 130°
2026-05-03 21:32 18.49389 -66.27698 5765 ft 257 kts 129°
2026-05-03 21:33 18.48271 -66.26254 5529 ft 249 kts 129°
2026-05-03 21:33 18.47563 -66.25340 5382 ft 236 kts 129°
2026-05-03 21:33 18.46562 -66.24046 5138 ft 224 kts 129°
2026-05-03 21:33 18.45589 -66.22783 4827 ft 219 kts 129°
2026-05-03 21:34 18.44656 -66.21581 4472 ft 205 kts 129°
2026-05-03 21:34 18.43791 -66.20467 4123 ft 188 kts 129°
2026-05-03 21:34 18.43082 -66.19344 3757 ft 183 kts 106°
2026-05-03 21:34 18.43206 -66.18045 3450 ft 183 kts 75°
2026-05-03 21:35 18.43429 -66.16740 3166 ft 181 kts 95°
2026-05-03 21:35 18.43387 -66.15430 2898 ft 179 kts 91°
2026-05-03 21:35 18.43381 -66.14121 2609 ft 179 kts 91°
2026-05-03 21:35 18.43370 -66.12821 2571 ft 178 kts 94°
2026-05-03 21:36 18.43377 -66.11529 2775 ft 174 kts 92°
2026-05-03 21:36 18.43368 -66.10222 3198 ft 190 kts 94°
2026-05-03 21:36 18.43339 -66.08693 3439 ft 228 kts 92°
2026-05-03 21:36 18.43325 -66.06876 3696 ft 267 kts 92°
2026-05-03 21:37 18.43298 -66.04933 3858 ft 258 kts 92°
2026-05-03 21:37 18.43278 -66.03091 3915 ft 250 kts 90°
2026-05-03 21:37 18.43740 -66.01346 3913 ft 252 kts 61°
2026-05-03 21:37 18.45000 -66.00044 3911 ft 259 kts 31°
2026-05-03 21:38 18.46738 -65.99543 3908 ft 265 kts
2026-05-03 21:38 18.48590 -65.99652 3909 ft 268 kts 356°
2026-05-03 21:38 18.50455 -65.99853 3910 ft 268 kts 356°
2026-05-03 21:38 18.52225 -66.00372 3908 ft 271 kts 332°
2026-05-03 21:39 18.53638 -66.01689 3919 ft 275 kts 310°
2026-05-03 21:39 18.54613 -66.03422 3913 ft 275 kts 290°
2026-05-03 21:39 18.55236 -66.05324 3904 ft 274 kts 287°
2026-05-03 21:39 18.55811 -66.07241 3902 ft 275 kts 286°
2026-05-03 21:40 18.56382 -66.09165 3902 ft 273 kts 286°
2026-05-03 21:40 18.56794 -66.11103 3898 ft 271 kts 271°
2026-05-03 21:40 18.56808 -66.13095 3900 ft 271 kts 267°
2026-05-03 21:40 18.56761 -66.15074 3901 ft 268 kts 266°
2026-05-03 21:41 18.56713 -66.16988 3808 ft 257 kts 266°
2026-05-03 21:41 18.56672 -66.18849 3571 ft 252 kts 266°
2026-05-03 21:41 18.56632 -66.20684 3333 ft 248 kts 266°
2026-05-03 21:41 18.56334 -66.22420 3130 ft 235 kts 238°
2026-05-03 21:42 18.55299 -66.23658 3019 ft 222 kts 206°
2026-05-03 21:42 18.53856 -66.24089 2958 ft 216 kts 180°
2026-05-03 21:42 18.52350 -66.24149 2856 ft 217 kts 176°
2026-05-03 21:42 18.50846 -66.24155 2750 ft 215 kts 175°
2026-05-03 21:43 18.49350 -66.24154 2662 ft 210 kts 177°
2026-05-03 21:43 18.47936 -66.24155 2575 ft 200 kts 175°
2026-05-03 21:43 18.46515 -66.24142 2502 ft 203 kts 170°
2026-05-03 21:43 18.45251 -66.23579 2432 ft 199 kts 142°
2026-05-03 21:44 18.44280 -66.22583 2383 ft 199 kts 126°
2026-05-03 21:44 18.43629 -66.21289 2291 ft 198 kts 109°
2026-05-03 21:44 18.43387 -66.19860 2209 ft 200 kts 93°
2026-05-03 21:44 18.43384 -66.18399 2205 ft 199 kts 91°
2026-05-03 21:45 18.43384 -66.16947 2200 ft 198 kts 93°
2026-05-03 21:45 18.43381 -66.15488 2205 ft 200 kts 92°
2026-05-03 21:45 18.43380 -66.14052 2198 ft 188 kts 92°
2026-05-03 21:45 18.43379 -66.12720 2040 ft 179 kts 92°
2026-05-03 21:46 18.43376 -66.11396 1828 ft 178 kts 91°
2026-05-03 21:46 18.43374 -66.10110 1604 ft 176 kts 91°
2026-05-03 21:46 18.43373 -66.08875 1387 ft 161 kts 93°
2026-05-03 21:46 18.43370 -66.07765 1198 ft 148 kts 94°
2026-05-03 21:47 18.43368 -66.06708 1010 ft 143 kts 90°
2026-05-03 21:47 18.43365 -66.05686 832 ft 139 kts 93°
2026-05-03 21:47 18.43363 -66.04654 669 ft 140 kts 89°
2026-05-03 21:47 18.43361 -66.03643 479 ft 135 kts 89°
2026-05-03 21:48 18.43366 -66.02660 266 ft 133 kts 90°
2026-05-03 21:48 18.43356 -66.01697 62 ft 134 kts 89°
2026-05-03 21:48 18.43355 -66.00744 -47 ft 118 kts 89°
2026-05-03 21:48 18.43355 -66.00190 -47 ft 34 kts 90°
2026-05-03 21:49 18.43364 -66.00015 -38 ft 16 kts 72°
2026-05-03 21:49 18.43405 -65.99924 -39 ft 9 kts 62°
2026-05-03 21:49 18.43454 -65.99921 -36 ft 8 kts 318°
2026-05-03 21:49 18.43466 -65.99983 -29 ft 12 kts 271°
2026-05-03 21:50 18.43467 -66.00093 -30 ft 17 kts 271°
2026-05-03 21:50 18.43471 -66.00228 -38 ft 19 kts 268°
2026-05-03 21:50 18.43470 -66.00328 -31 ft 9 kts 274°
2026-05-03 21:50 18.43496 -66.00358 -28 ft 4 kts 346°
2026-05-03 21:51 18.43529 -66.00351 -35 ft 7 kts 14°
2026-05-03 21:51 18.43568 -66.00355 -33 ft 5 kts 334°
2026-05-03 21:51 18.43581 -66.00363 -33 ft 0 kts 330°